Date String (YYYY-MM-DD hh:mm:ss) UTC,Instrument flags,Ambient pressure (hPa),Sample flow (lpm),Bypass flow (lpm),Sample temperature (°C),Ambient temperature (°C),ASC tube jacket temperature (°C),LED temperature (°C),Box temperature (°C),Sample RH (%),Span deviation,Mass concentration (μg/m³),Mass concentration (μg/m³),Mass concentration (μg/m³)
DateTimeUTC,F1_M11,P_M11,Q1_M11,Q2_M11,T1_M11,T2_M11,T3_M11,T4_M11,T5_M11,U1_M11,ZSPAN_M11,X0_M11,X2_M11,X1_M11
2022-01-04 16:00:00,,0819.1,4.99,0.00,22.2,21.4,00.0,31.2,23.7,06.4,0000.0,0000.82,0000.51,0000.39
2022-01-04 16:01:00,,0819.1,5.00,0.00,22.2,21.4,00.0,31.2,23.6,06.4,0000.0,0000.85,0000.53,0000.39
2022-01-04 16:02:00,,0819.1,5.01,0.00,22.1,21.4,00.0,31.2,23.6,06.3,0000.0,0001.72,0000.55,0000.40
2022-01-04 16:03:00,,0819.1,5.00,0.00,22.1,21.3,00.0,31.2,23.7,06.6,0000.0,0002.37,0000.56,0000.40
2022-01-04 16:04:00,,0819.3,4.99,0.00,22.1,21.3,00.0,31.2,23.7,06.6,0000.0,0002.41,0000.56,0000.40
2022-01-04 16:05:00,,0819.3,5.00,0.00,22.1,21.3,00.0,31.2,23.7,06.8,0000.0,0003.16,0000.59,0000.39
2022-01-04 16:06:00,,0819.3,4.99,0.00,22.2,21.3,00.0,31.2,23.8,07.0,0000.0,0003.17,0000.58,0000.39
2022-01-04 16:07:00,,0819.2,5.01,0.00,22.2,21.4,00.0,31.2,23.8,06.8,0000.0,0003.23,0000.59,0000.39
2022-01-04 16:08:00,,0819.3,5.01,0.00,22.2,21.4,00.0,31.2,23.8,06.6,0000.0,0003.30,0000.59,0000.39
2022-01-04 16:09:00,,0819.4,4.99,0.00,22.2,21.4,00.0,31.2,23.8,06.5,0000.0,0003.24,0000.58,0000.39
2022-01-04 16:10:00,,0819.3,5.01,0.00,22.2,21.4,00.0,31.2,23.8,06.3,0000.0,0003.28,0000.59,0000.40
2022-01-04 16:11:00,,0819.3,4.99,0.00,22.2,21.4,00.0,31.2,23.8,06.5,0000.0,0003.33,0000.59,0000.40
2022-01-04 16:12:00,,0819.2,5.00,0.00,22.2,21.5,00.0,31.2,23.8,06.8,0000.0,0003.73,0000.61,0000.40
2022-01-04 16:13:00,,0819.4,5.00,0.00,22.2,21.5,00.0,31.2,23.8,06.6,0000.0,0003.44,0000.59,0000.39
2022-01-04 16:14:00,,0819.4,5.01,0.00,22.2,21.4,00.0,31.2,23.8,06.7,0000.0,0002.39,0000.58,0000.39
2022-01-04 16:15:00,,0819.4,4.99,0.00,22.2,21.4,00.0,31.2,23.8,07.3,0000.0,0002.55,0000.61,0000.39
2022-01-04 16:16:00,,0819.4,5.01,0.00,22.2,21.4,00.0,31.2,23.8,07.5,0000.0,0002.00,0000.59,0000.39
2022-01-04 16:17:00,,0819.4,5.01,0.00,22.2,21.4,00.0,31.2,23.9,07.1,0000.0,0001.74,0000.59,0000.39
2022-01-04 16:18:00,,0819.3,4.98,0.00,22.2,21.4,00.0,31.2,23.8,06.8,0000.0,0002.14,0000.58,0000.39
2022-01-04 16:19:00,,0819.3,5.02,0.00,22.2,21.4,00.0,31.2,23.8,06.4,0000.0,0002.99,0000.57,0000.39
2022-01-04 16:20:00,,0819.3,5.01,0.00,22.2,21.3,00.0,31.2,23.8,06.9,0000.0,0002.99,0000.57,0000.39
2022-01-04 16:21:00,,0819.4,4.99,0.00,22.2,21.4,00.0,31.2,23.8,06.5,0000.0,0003.43,0000.57,0000.39
2022-01-04 16:22:00,,0819.4,5.01,0.00,22.3,22.1,00.0,31.3,24.1,06.7,0000.0,0004.09,0000.57,0000.39
2022-01-04 16:23:00,,0819.4,5.00,0.00,22.4,23.1,00.0,31.3,24.4,06.4,0000.0,0003.77,0000.56,0000.40
2022-01-04 16:24:00,,0819.4,5.00,0.00,22.6,23.3,00.0,31.4,24.6,06.5,0000.0,0003.52,0000.55,0000.40
2022-01-04 16:25:00,,0819.5,5.00,0.00,22.6,23.0,00.0,31.4,24.5,06.8,0000.0,0003.59,0000.58,0000.40
2022-01-04 16:26:00,,0819.5,4.99,0.00,22.6,22.8,00.0,31.4,24.5,06.9,0000.0,0003.47,0000.56,0000.40
2022-01-04 16:27:00,,0819.3,5.01,0.00,22.6,22.6,00.0,31.4,24.4,06.8,0000.0,0003.52,0000.57,0000.41
2022-01-04 16:28:00,,0819.3,4.98,0.00,22.6,22.5,00.0,31.5,24.4,06.8,0000.0,0003.56,0000.58,0000.41
2022-01-04 16:29:00,,0819.4,5.01,0.00,22.6,22.3,00.0,31.5,24.3,06.8,0000.0,0003.02,0000.59,0000.41
2022-01-04 16:30:00,,0819.3,5.00,0.00,22.6,22.2,00.0,31.5,24.3,07.0,0000.0,0003.07,0000.59,0000.41
2022-01-04 16:31:00,,0819.3,4.99,0.00,22.6,22.2,00.0,31.5,24.3,06.8,0000.0,0003.51,0000.59,0000.41
2022-01-04 16:32:00,,0819.2,5.01,0.00,22.6,22.1,00.0,31.5,24.2,06.9,0000.0,0003.07,0000.63,0000.41
2022-01-04 16:33:00,,0819.3,5.00,0.00,22.6,22.0,00.0,31.5,24.2,07.1,0000.0,0002.42,0000.64,0000.42
2022-01-04 16:34:00,,0819.3,5.00,0.00,22.6,22.0,00.0,31.5,24.2,06.8,0000.0,0002.35,0000.62,0000.42
2022-01-04 16:35:00,,0819.4,4.99,0.00,22.6,22.0,00.0,31.5,24.2,06.5,0000.0,0002.36,0000.63,0000.43
2022-01-04 16:36:00,,0819.4,5.00,0.00,22.6,21.9,00.0,31.5,24.2,06.9,0000.0,0002.28,0000.60,0000.43
2022-01-04 16:37:00,,0819.2,5.00,0.00,22.6,21.9,00.0,31.5,24.1,06.8,0000.0,0002.22,0000.58,0000.43
2022-01-04 16:38:00,,0819.3,5.00,0.00,22.6,21.9,00.0,31.6,24.2,06.6,0000.0,0002.21,0000.57,0000.42
2022-01-04 16:39:00,,0819.3,5.01,0.00,22.6,21.8,00.0,31.5,24.2,06.5,0000.0,0002.43,0000.59,0000.42
2022-01-04 16:40:00,,0819.3,4.98,0.00,22.5,21.7,00.0,31.5,24.1,06.4,0000.0,0002.37,0000.59,0000.42
2022-01-04 16:41:00,,0819.3,5.01,0.00,22.5,21.7,00.0,31.5,24.1,06.7,0000.0,0001.67,0000.58,0000.42
2022-01-04 16:42:00,,0819.2,5.01,0.00,22.5,21.7,00.0,31.5,24.1,06.9,0000.0,0001.04,0000.58,0000.42
2022-01-04 16:43:00,,0819.3,4.99,0.00,22.5,21.7,00.0,31.5,24.0,06.7,0000.0,0000.96,0000.53,0000.41
2022-01-04 16:44:00,,0819.3,5.01,0.00,22.5,21.6,00.0,31.5,24.1,07.1,0000.0,0000.92,0000.50,0000.40
2022-01-04 16:45:00,,0819.3,4.98,0.00,22.5,21.6,00.0,31.5,24.1,06.8,0000.0,0000.95,0000.51,0000.40
2022-01-04 16:46:00,,0819.3,5.01,0.00,22.5,21.6,00.0,31.5,24.1,07.1,0000.0,0000.95,0000.52,0000.39
2022-01-04 16:47:00,,0819.3,5.00,0.00,22.5,21.6,00.0,31.5,24.1,07.1,0000.0,0000.95,0000.52,0000.38
2022-01-04 16:48:00,,0819.3,5.00,0.00,22.5,21.6,00.0,31.5,24.0,06.9,0000.0,0000.98,0000.52,0000.38
2022-01-04 16:49:00,,0819.1,5.00,0.00,22.5,21.6,00.0,31.5,24.0,06.7,0000.0,0001.04,0000.54,0000.38
2022-01-04 16:50:00,,0819.1,5.00,0.00,22.5,21.6,00.0,31.5,24.0,06.7,0000.0,0000.83,0000.52,0000.39
2022-01-04 16:51:00,,0819.3,4.99,0.00,22.5,21.6,00.0,31.5,24.0,06.9,0000.0,0000.76,0000.50,0000.38
2022-01-04 16:52:00,,0819.3,5.01,0.00,22.5,21.5,00.0,31.5,24.0,07.1,0000.0,0000.77,0000.50,0000.38
2022-01-04 16:53:00,,0819.3,5.00,0.00,22.5,21.5,00.0,31.5,24.0,07.0,0000.0,0001.50,0000.50,0000.38
2022-01-04 16:54:00,,0819.3,4.99,0.00,22.4,21.5,00.0,31.5,24.0,07.4,0000.0,0001.90,0000.49,0000.38
2022-01-04 16:55:00,,0819.2,5.01,0.00,22.4,21.5,00.0,31.5,24.0,07.0,0000.0,0001.95,0000.51,0000.38
2022-01-04 16:56:00,,0819.2,5.00,0.00,22.4,21.4,00.0,31.5,24.0,07.2,0000.0,0002.06,0000.53,0000.38
2022-01-04 16:57:00,,0819.2,4.99,0.00,22.4,21.4,00.0,31.5,24.0,06.8,0000.0,0002.12,0000.53,0000.38
2022-01-04 16:58:00,,0819.2,5.01,0.00,22.4,21.4,00.0,31.5,24.0,06.7,0000.0,0002.15,0000.54,0000.38
2022-01-04 16:59:00,,0819.1,4.99,0.00,22.4,21.4,00.0,31.5,24.0,07.4,0000.0,0002.16,0000.54,0000.37
